Aeroporto :
LOGIN :

Iscrizione | Disclaimer

   EN    FR    IT 

 










Sommario :    VFR   VFR Marginale   IFR   IFR Intensivo   IFR Molto Intensivo
Visibilità : 
Base nubi : 
>= 8 km
>= 3000ft
5 / 8 km
1000 / 3000 ft
1500m / 5 km
500 / 1000 ft
800 / 1500m
200 / 500 ft
< 800m
< 200 ft
Simboli :   Temporali  Nebbia  Neve Forte  Precipitazioni Forti  Vento > 20 kt
SIGMETs :   Varie  Temporali  Ghiacco  Turbolenza  Onda orograficha  Ceneri Vulcaniche






- Altitudine del aeroporto : 919 ft
- Codice IATA : IFO


UKLI - Ivano Frankivs'k

ULTIMO METAR :
  • 220700Z 00000MPS CAVOK 09/08 Q1020 NOSIG

METARs OBSOLETI :
  • 220630Z 00000MPS CAVOK 06/06 Q1020 NOSIG
  • 220600Z 00000MPS 7000 NSC 03/03 Q1019 NOSIG
  • 220530Z 00000MPS 7000 NSC 02/02 Q1019
  • 220500Z 00000MPS 9000 NSC 02/01 Q1019

TAF TAF UKLI
Valido dal 22 a 06 ore il 22 a 15 ore UTC


220537Z 2206/2215 22003MPS 9999 BKN020 TX18/2212Z TN03/2206Z
TEMPO 2206/2215 24007G12MPS



MetMap, La meteo Aeronautica in un colpo d'occhio ! - Copyright ORBIFLY Dicembre 2007 - Disclaimer

ORBIFLY MET'MAP TEAM :

Programmazione e sviluppo : Alexandra Zaïnal
Concezione : Baudouin d'Aumeries
Aiuto per la programmazione : Marc-Olivier Méhu
Supporto tecnico e logistico : Manuel Goepfert
Aiuto per la traduzione : Arnaldo La Scala

Contatto : metmap@orbifly.com




FONTI E CREDITI :

   NOAA